Wetbulb
78.41 76.60 76.05 76.39 75.67 76.28 76.48 77.78 79.37 79.62 79.95 80.26 79.56 78.49 78.77 77.70 76.79 77.22 77.00 77.51 77.46 75.96
78.15 77.84 76.56 77.30 77.35 76.95 78.04 77.98 79.81 80.14 80.28 80.58 80.29 78.88 78.73 77.35 77.26 76.90 76.66 75.98 76.65 76.34
77.74 78.31 77.87 77.80 77.69 77.34 77.92 79.85 79.56 79.93 80.08 79.90 80.52 80.27 79.44 77.60 78.38 77.94 76.24 75.15 75.79 75.64
77.60 77.97 77.99 77.23 77.63 78.15 78.42 79.43 80.10 80.23 79.04 79.07 79.38 80.63 80.47 79.69 78.79 78.51 78.21 77.41 76.21 77.07
77.54 77.61 76.91 76.89 77.26 78.55 78.37 78.83 80.27 80.41 79.90 80.26 80.01 80.48 80.27 79.26 78.81 78.66 78.36 78.33 78.08 76.96
76.62 76.79 76.51 76.85 77.33 77.72 78.60 78.91 78.58 79.29 79.81 79.72 79.42 79.62 79.72 79.57 79.48 78.56 78.29 78.21 78.49 78.17
75.91 76.56 76.56 77.26 77.89 77.85 78.82 78.89 79.11 79.31 79.53 79.70 79.57 79.36 79.13 79.04 79.20 79.55 78.65 78.83 78.67 78.67
76.83 77.47 77.79 78.22 78.49 79.01 79.20 79.72 80.20 80.27 80.32 80.29 79.59 78.67 79.11 79.24 78.78 79.00 78.84 78.67 78.77 78.83
77.54 77.83 78.11 78.79 79.13 79.88 79.71 79.70 79.36 78.65 79.22 79.94 79.01 72.85 71.37 76.20 78.86 79.08 79.15 78.17 78.08 79.20
77.87 77.27 77.57 77.26 76.44 75.70 76.45 76.62 77.11 77.12 78.19 77.91 78.86 68.90 68.66 70.54 77.22 76.30 76.49 77.74 78.18 78.35
75.12 74.30 73.28 74.49 73.06 74.29 74.66 75.23 76.18 77.13 77.80 77.10 76.18 66.79 67.04 68.72 73.45 74.29 75.29 76.43 77.67 78.53
76.24 74.93 74.37 73.75 73.68 74.23 74.38 75.32 75.49 75.63 75.89 75.84 76.26 64.74 63.33 66.24 73.09 72.89 74.16 75.70 76.75 77.79
74.41 74.67 74.61 74.68 74.59 74.80 74.78 74.31 73.68 73.58 74.07 71.34 73.63 63.80 61.82 65.70 71.46 72.28 72.89 74.43 74.94 68.27
74.77 74.85 74.87 74.60 74.74 74.57 74.22 74.15 74.06 74.16 74.80 75.23 73.54 72.57 61.56 61.32 70.38 70.77 71.19 71.60 72.52 72.32
MSLP
1016.04 1016.15 1016.34 1016.42 1016.19 1016.08 1015.88 1015.90 1016.25 1016.57 1016.80 1017.11 1017.40 1017.67 1017.92 1018.04 1018.18 1018.17 1018.40 1018.47 1018.50 1017.99
1015.46 1015.65 1015.55 1015.92 1016.16 1016.09 1016.17 1015.93 1016.20 1016.27 1016.64 1016.75 1017.00 1017.46 1017.60 1017.76 1018.05 1018.15 1018.32 1018.07 1018.23 1018.33
1014.78 1015.19 1015.37 1015.69 1015.95 1015.82 1015.86 1016.26 1016.33 1016.36 1016.56 1016.70 1016.85 1017.13 1017.49 1017.39 1017.60 1017.89 1017.82 1017.70 1017.85 1018.06
1014.15 1014.52 1014.91 1015.09 1015.46 1015.74 1015.86 1016.07 1016.24 1016.40 1016.42 1016.54 1016.75 1016.85 1016.97 1017.27 1017.28 1017.56 1017.71 1017.65 1017.59 1017.84
1013.71 1014.09 1014.17 1014.57 1014.93 1015.26 1015.47 1015.67 1015.88 1015.98 1016.07 1016.20 1016.24 1016.38 1016.72 1016.75 1016.72 1017.10 1017.30 1017.19 1017.30 1017.45
1012.86 1013.33 1013.56 1013.64 1014.07 1014.47 1014.93 1015.24 1015.33 1015.53 1015.68 1015.76 1015.77 1015.86 1016.15 1016.23 1016.20 1016.19 1016.40 1016.42 1016.45 1016.61
1012.42 1012.77 1012.87 1013.10 1013.54 1013.77 1014.28 1014.60 1014.77 1014.97 1015.17 1015.29 1015.32 1015.35 1015.47 1015.50 1015.69 1015.86 1015.66 1015.64 1015.84 1015.92
1012.36 1012.56 1012.86 1013.05 1013.47 1013.70 1013.91 1014.15 1014.26 1014.30 1014.40 1014.58 1014.51 1014.35 1014.58 1014.73 1014.79 1014.94 1015.12 1014.93 1014.94 1015.04
1012.62 1012.88 1012.96 1013.16 1013.40 1013.47 1013.49 1013.37 1013.72 1013.71 1013.73 1014.04 1014.04 1014.03 1014.14 1014.32 1013.99 1014.05 1014.08 1014.20 1014.17 1014.25
1012.60 1012.99 1013.27 1013.75 1013.88 1014.10 1013.92 1014.28 1013.88 1013.91 1013.65 1013.49 1013.68 1013.91 1014.24 1014.51 1014.48 1013.97 1013.63 1013.54 1013.44 1013.54
1013.25 1013.53 1014.06 1014.10 1014.25 1014.05 1014.39 1014.13 1013.82 1013.64 1013.73 1013.86 1013.76 1014.30 1014.68 1014.55 1014.61 1013.97 1013.51 1013.19 1012.96 1012.97
1013.32 1013.52 1013.79 1013.91 1013.96 1014.23 1014.12 1013.74 1013.62 1013.54 1013.50 1013.49 1013.63 1014.34 1014.54 1014.87 1014.00 1013.09 1013.07 1012.89 1012.84 1012.73
1013.58 1013.66 1013.71 1013.74 1013.82 1013.91 1014.08 1013.87 1013.59 1013.39 1013.51 1013.66 1013.88 1013.97 1014.43 1014.59 1013.12 1012.50 1012.19 1012.38 1012.91 1013.25
1013.69 1013.74 1013.80 1013.89 1013.91 1013.86 1013.80 1013.59 1013.36 1013.19 1013.11 1013.02 1013.07 1013.23 1013.58 1013.55 1013.08 1012.48 1012.14 1012.65 1012.63 1012.79
Wind_Speed
11 8 8 8 7 5 4 4 3 6 6 6 6 6 5 5 6 5 6 6 6 5
12 12 9 8 7 8 6 5 5 5 6 5 7 7 6 6 5 4 7 7 7 7
13 12 11 9 10 9 6 5 4 5 5 6 5 7 7 6 7 7 6 7 6 7
11 11 11 11 10 10 10 7 7 6 7 8 8 8 8 8 6 7 7 7 7 8
11 10 11 11 11 10 10 10 9 9 9 9 9 9 8 9 9 9 9 10 10 10
12 12 12 12 11 12 11 11 11 11 11 10 10 10 9 10 11 11 11 12 12 12
10 11 11 11 11 11 11 11 11 11 11 11 11 11 11 11 11 12 12 13 13 13
7 7 8 9 9 9 9 10 10 10 11 12 12 11 13 12 12 12 13 14 14 15
3 5 7 8 9 10 10 10 9 10 10 11 10 11 10 10 12 12 12 13 14 14
4 4 3 3 3 2 4 4 6 6 9 9 10 7 4 2 9 8 10 12 12 12
4 4 4 5 4 5 8 9 9 9 8 9 7 2 5 8 12 11 10 10 11 14
1 2 4 5 4 6 6 7 7 7 7 7 7 9 5 7 12 13 12 8 10 11
2 2 3 4 4 4 5 7 7 6 7 7 8 11 11 10 6 7 7 3 7 6
2 2 2 2 3 4 5 6 6 7 7 8 7 4 8 4 5 5 4 5 5 2
Wind_Direction
209 210 218 220 259 240 259 204 138 194 196 190 187 204 201 220 236 204 228 235 257 277
204 216 213 229 217 228 231 234 209 201 212 211 195 201 197 236 217 249 230 232 236 252
206 209 212 215 229 245 243 234 249 205 211 236 221 210 209 224 202 225 237 236 226 248
212 209 208 213 218 227 236 227 223 222 238 234 232 224 217 244 261 220 236 250 248 245
210 215 212 214 217 222 224 231 230 227 222 228 226 231 227 232 242 232 229 237 243 247
208 213 221 217 215 210 216 225 234 224 230 234 237 235 233 245 235 233 234 241 238 238
228 229 230 220 217 214 212 217 223 226 229 230 235 239 240 236 240 246 240 241 245 245
243 239 229 230 220 222 223 223 230 227 225 225 222 220 220 226 229 233 248 249 245 245
219 226 220 213 216 213 214 208 215 217 222 229 229 213 211 226 226 231 236 244 256 253
120 117 156 144 214 234 217 302 250 253 245 232 227 211 220 266 255 246 237 251 258 254
115 150 183 218 236 242 261 259 255 264 254 249 258 161 199 212 248 250 253 247 244 254
50 197 211 220 227 276 284 283 286 290 299 292 289 173 219 248 265 257 258 264 273 267
29 342 283 285 296 282 271 268 284 286 282 274 271 173 185 223 275 281 283 311 280 221
38 22 343 300 273 283 279 306 279 280 283 277 270 266 160 186 282 282 296 282 259 265